This is the latest recevied weather packets stored in our database for station/object SA7AHC. If no packets are shown the sender has not sent any weather packets the latest 10 day(s).
| Time | Temp. | Humidity | Pressure | Rain* | Wind** | Luminosity | Snow |
|---|---|---|---|---|---|---|---|
| 1788333693 | 12.78° C | 98% | 1014.7 hPa | 0 mm | - | 104 W/m² | - |
| 1788333090 | 12.22° C | 98% | 1014.7 hPa | 0 mm | - | 118 W/m² | - |
| 1788332496 | 12.22° C | 99% | 1014.6 hPa | 0 mm | - | 84 W/m² | - |
| 1788331889 | 12.22° C | 99% | 1014.5 hPa | 0 mm | - | 104 W/m² | - |
| 1788331290 | 11.67° C | 98% | 1014.5 hPa | 0 mm | - | 79 W/m² | - |
| 1788330689 | 11.67° C | 99% | 1014.5 hPa | 0 mm | - | 49 W/m² | - |
| 1788330089 | 11.67° C | 99% | 1014.3 hPa | 0 mm | - | 88 W/m² | - |
| 1788329490 | 11.67° C | 99% | 1014.3 hPa | 0 mm | - | 93 W/m² | - |
| 1788328890 | 11.67° C | 99% | 1014.1 hPa | 0 mm | - | 107 W/m² | - |
| 1788328289 | 11.11° C | 99% | 1014.1 hPa | 0 mm | - | 125 W/m² | - |
| 1788327689 | 11.11° C | 99% | 1014.1 hPa | 0.25 mm | - | 125 W/m² | - |
| 1788327090 | 10.56° C | 98% | 1014.1 hPa | 0.25 mm | - | 86 W/m² | - |
| 1788326489 | 10.56° C | 98% | 1014.2 hPa | 0.25 mm | - | 72 W/m² | - |
| 1788325890 | 10.56° C | 98% | 1014.2 hPa | 0.25 mm | - | 69 W/m² | - |
| 1788325293 | 10.56° C | 99% | 1014.2 hPa | 0.25 mm | - | 70 W/m² | - |
| 1788324692 | 10.56° C | 98% | 1014 hPa | 0.25 mm | - | 46 W/m² | - |
| 1788324089 | 10.56° C | 98% | 1014 hPa | 0 mm | - | 32 W/m² | - |
| 1788323489 | 10.56° C | 98% | 1013.9 hPa | 0 mm | - | 19 W/m² | - |
| 1788322890 | 10.56° C | 98% | 1013.9 hPa | 0 mm | - | 12 W/m² | - |
| 1788322289 | 10.56° C | 98% | 1014 hPa | 0 mm | - | 7 W/m² | - |
| 1788321690 | 10.56° C | 98% | 1013.9 hPa | 0 mm | - | 0 W/m² | - |
| 1788321089 | 10.56° C | 98% | 1013.9 hPa | 0 mm | - | 0 W/m² | - |
| 1788320489 | 10.56° C | 98% | 1014 hPa | 0 mm | - | 0 W/m² | - |
| 1788319889 | 10.56° C | 98% | 1013.9 hPa | 0 mm | - | 0 W/m² | - |
| 1788319292 | 11.11° C | 98% | 1013.9 hPa | 0 mm | - | 0 W/m² | - |
* Rain latest hour (hover to see other rain measurements)
** Current wind speed in m/s (hover to see current wind gust speed)